Wind_Speed
8 7 7 6 4 3 3 3 2 1 0 1 2 2 3 4 4 4 4 3 3 4 3 4 3 2 2 2 3 2 3 3 3 3 3 3 3 3 3 4 4 4 4
8 7 7 6 5 4 3 2 1 0 1 2 2 3 3 4 4 4 3 3 3 4 4 3 3 2 2 2 3 3 3 4 4 3 3 3 3 3 3 4 4 4 4
8 8 7 7 6 5 4 2 1 1 1 2 3 4 4 4 5 4 4 4 4 4 4 4 3 2 2 2 2 3 3 4 3 3 3 2 3 3 4 4 4 4 4
8 8 7 6 6 5 4 3 2 1 1 2 3 4 4 5 5 5 5 5 5 5 5 4 3 3 3 2 3 3 3 3 3 3 2 3 3 3 4 4 4 4 3
9 7 6 6 6 5 5 4 3 2 1 2 3 4 4 4 4 5 5 5 5 5 5 4 4 3 3 2 3 4 3 3 3 3 3 3 3 3 3 3 3 3 3
8 8 8 7 6 6 5 4 4 3 1 2 3 4 4 4 5 5 5 5 5 5 4 4 4 4 4 3 3 3 3 4 3 3 3 3 3 3 3 3 3 3 3
7 7 7 7 6 5 5 4 4 4 1 2 3 3 3 4 4 5 6 5 5 4 4 4 4 4 4 4 4 3 2 3 4 4 3 3 3 2 3 3 3 2 2
7 7 7 7 6 5 4 4 3 2 2 0 2 3 3 3 4 4 5 4 5 5 4 5 5 5 4 4 4 4 3 3 3 3 3 3 2 2 3 3 3 3 2
8 7 7 7 6 5 4 4 3 1 1 0 0 2 2 3 4 4 5 5 5 5 5 5 6 6 5 5 5 4 3 4 3 3 3 3 3 2 2 3 3 3 4
7 7 8 7 6 5 4 4 3 2 0 0 1 1 2 2 3 4 4 5 5 6 5 5 6 6 5 5 5 5 5 4 4 4 3 3 3 3 2 3 3 3 4
8 7 8 7 6 5 5 5 4 3 2 1 1 1 1 2 2 3 4 5 6 5 5 5 6 6 6 6 5 5 5 4 5 4 4 3 3 3 3 3 3 3 4
9 8 8 7 7 6 6 5 5 4 3 2 1 1 1 2 2 3 3 4 6 6 6 6 6 6 7 6 6 5 5 5 5 5 5 4 4 4 4 4 4 4 5
10 9 8 7 7 7 6 6 5 5 4 3 2 1 2 2 2 2 3 4 4 5 6 6 6 6 6 7 6 6 5 5 5 5 5 5 5 5 4 4 4 4 5
10 9 9 8 7 7 7 7 6 5 4 3 2 0 1 1 2 2 3 4 5 5 5 6 6 6 7 7 7 6 6 5 5 6 6 6 6 5 5 4 4 5 5
10 10 9 8 8 7 7 7 6 5 4 3 1 1 1 1 2 3 4 4 4 4 4 5 6 7 7 7 7 7 6 6 6 6 7 7 6 6 5 5 5 5 5
10 10 9 9 8 8 8 8 7 5 4 3 2 1 1 1 2 3 4 3 3 4 4 4 5 7 7 8 8 8 7 7 6 7 8 7 7 7 6 6 6 6 6
9 9 8 8 8 7 7 8 7 6 4 3 2 2 1 1 2 3 4 2 2 3 4 4 5 6 7 7 7 8 8 8 7 8 8 8 8 7 7 7 7 7 6
8 8 8 8 8 8 7 7 8 7 6 5 3 3 2 2 3 3 4 3 3 4 4 4 4 5 6 7 8 8 8 9 9 8 8 8 9 9 8 9 8 8 7
8 8 8 8 8 7 7 7 7 7 6 6 5 4 3 3 3 4 4 4 4 4 4 4 5 6 6 7 8 8 8 8 9 8 8 9 9 10 9 9 9 10 9
8 8 9 9 8 7 6 6 7 7 7 7 5 4 4 3 4 4 5 5 4 4 4 4 5 6 6 6 6 7 8 9 9 9 9 9 9 10 10 10 9 9 9
9 9 9 9 8 7 6 6 6 6 6 7 6 5 5 4 4 5 6 6 5 4 5 5 6 6 7 7 7 6 7 8 9 9 9 10 10 11 11 11 11 10 10
8 8 9 8 8 8 7 7 6 6 6 6 6 5 5 5 5 6 6 6 6 5 6 6 7 7 7 7 7 7 7 8 9 9 10 11 11 11 12 12 12 12 12
10 10 10 9 9 8 7 7 6 6 6 6 6 6 5 5 5 6 7 7 8 8 7 6 7 8 8 8 8 8 9 10 10 11 11 12 12 12 13 13 13 13 13
11 11 11 11 10 9 8 8 8 7 7 7 6 6 6 7 7 7 8 8 8 8 8 8 8 9 9 9 10 10 11 11 11 12 12 13 13 13 13 13 13 13 14
11 12 12 11 11 10 10 9 9 9 8 8 8 7 8 8 9 9 9 10 10 10 10 10 10 10 11 11 11 11 12 12 11 12 13 13 14 14 14 15 15 15 15
11 12 12 11 11 11 10 10 10 10 9 9 8 8 8 9 10 10 10 10 10 10 10 11 11 12 12 12 12 12 13 13 13 13 13 14 15 15 15 15 16 16 16
Wind_Direction
45 43 42 39 38 47 63 69 62 26 104 145 173 189 191 187 193 192 193 182 174 176 181 175 182 182 181 183 167 153 143 142 141 136 142 141 130 139 155 163 153 146 138
42 35 35 34 30 29 37 43 29 16 198 192 193 200 194 187 186 183 189 189 189 190 191 188 196 211 208 176 166 163 150 145 135 121 123 126 132 138 140 154 155 150 142
45 40 39 38 37 33 25 23 24 39 200 211 208 204 201 198 196 196 204 208 204 204 204 204 209 203 193 176 181 171 161 158 149 137 128 130 137 145 143 146 150 152 147
44 37 34 36 37 33 33 33 23 20 249 220 206 201 197 197 205 204 214 218 211 213 213 208 200 188 199 205 197 180 175 164 159 156 144 138 143 149 149 156 158 149 145
43 38 38 37 36 34 39 42 41 28 334 226 199 197 202 202 207 213 219 221 217 213 207 209 211 199 209 198 196 195 187 172 170 177 166 152 154 161 160 160 164 163 157
49 44 39 35 33 33 32 33 37 34 33 193 186 196 205 209 216 220 221 221 227 218 211 214 215 212 219 214 203 205 195 188 178 171 177 170 169 169 161 161 161 172 185
48 44 37 34 32 33 35 30 33 34 43 184 198 212 218 220 222 227 219 224 222 214 216 222 220 225 231 218 217 208 196 183 177 175 176 174 170 177 178 176 174 188 200
44 40 29 29 32 33 33 29 27 36 42 340 221 226 224 230 232 233 224 229 222 217 224 229 228 222 222 218 214 208 202 192 185 188 197 205 219 211 203 216 214 222 228
39 37 31 27 29 34 35 30 19 1 45 17 251 239 226 235 244 239 232 233 226 229 235 241 228 218 216 213 218 212 209 209 205 209 215 227 244 232 225 232 238 244 247
32 30 29 29 34 33 31 22 13 4 165 293 278 236 223 232 236 229 223 229 232 236 239 237 221 219 216 215 218 216 216 222 220 224 226 227 234 238 242 238 243 254 255
33 29 27 28 30 33 38 34 30 30 12 298 282 226 211 233 236 240 230 230 239 241 244 242 232 225 220 217 216 216 216 219 220 222 225 221 232 244 251 248 246 257 265
35 31 30 31 31 34 42 44 38 30 22 353 274 220 205 198 215 245 242 241 243 242 239 238 235 221 223 221 219 215 216 223 221 227 228 232 239 251 256 259 254 263 270
35 31 32 32 30 33 35 38 34 26 18 7 327 213 232 224 210 234 242 247 247 249 244 233 229 225 221 222 223 220 224 229 233 238 236 239 244 248 251 260 260 268 274
35 33 32 33 33 33 31 29 29 27 17 11 13 349 246 268 268 274 288 276 262 255 247 235 234 233 226 227 225 227 230 231 241 242 239 240 247 245 245 249 258 268 276
29 26 26 29 32 31 28 28 28 26 22 21 23 15 299 294 285 291 295 286 276 258 251 244 240 233 232 230 225 226 233 240 243 248 242 241 244 239 241 248 256 260 264
20 22 27 28 30 29 27 26 29 30 27 16 17 347 322 327 326 318 307 300 289 269 272 261 246 237 235 232 230 232 237 241 247 249 245 238 241 239 238 242 247 254 258
19 23 25 22 22 22 21 22 27 32 29 19 18 2 328 330 336 327 314 306 295 279 274 273 251 240 239 235 236 238 243 242 245 247 248 241 237 236 235 239 245 247 252
19 19 20 18 17 17 20 26 28 26 22 21 16 6 346 330 325 325 321 321 301 286 275 270 252 239 237 236 238 241 242 241 245 243 244 239 238 238 239 242 246 248 253
21 18 15 14 14 17 22 27 26 24 21 19 14 11 360 348 334 324 320 320 299 287 275 265 250 239 245 240 240 241 243 244 244 245 242 244 244 244 245 250 251 248 252
18 12 9 10 10 10 12 16 16 15 16 16 13 4 355 339 330 329 326 317 303 283 268 262 253 244 245 248 249 246 247 249 245 242 243 243 243 247 248 249 250 246 255
8 2 360 3 0 360 358 355 358 359 1 4 4 358 348 336 328 326 321 318 319 295 280 270 263 254 249 251 259 262 257 254 253 253 249 246 244 246 248 250 253 252 252
359 356 353 355 354 354 351 349 347 349 351 349 354 352 341 329 319 318 315 308 308 302 291 278 271 263 261 259 261 268 267 264 259 257 252 250 248 250 252 256 257 255 255
352 355 353 351 350 346 342 340 337 338 342 342 343 345 336 326 317 314 309 302 299 296 290 280 271 266 265 264 264 268 267 265 264 262 256 252 251 253 255 258 258 256 256
349 348 348 349 346 341 333 330 327 327 328 328 332 336 325 317 313 311 309 306 304 300 295 286 281 274 272 271 270 269 266 266 264 262 261 255 252 253 254 256 257 259 258
342 340 340 342 341 338 332 325 321 320 321 318 319 323 322 318 316 312 306 302 298 294 292 288 284 279 275 272 273 271 270 269 268 266 262 260 256 254 255 257 259 260 261
338 336 334 333 334 335 332 330 327 322 319 317 316 315 317 317 311 309 305 301 298 295 292 289 286 284 283 278 276 273 273 272 270 267 264 260 259 259 260 263 263 263 263
Height
5893 5892 5892 5892 5892 5892 5891 5891 5891 5891 5891 5891 5891 5892 5892 5892 5892 5893 5893 5894 5894 5895 5895 5895 5895 5896 5896 5896 5896 5896 5896 5896 5896 5896 5896 5896 5896 5895 5895 5895 5895 5895 5895
5894 5893 5893 5892 5892 5892 5892 5892 5891 5891 5891 5891 5891 5892 5892 5892 5893 5893 5893 5894 5894 5895 5895 5896 5896 5896 5896 5896 5896 5896 5896 5896 5896 5896 5896 5896 5896 5896 5895 5895 5896 5896 5896
5894 5894 5894 5893 5893 5893 5892 5892 5892 5891 5891 5891 5892 5892 5892 5893 5893 5893 5894 5894 5894 5895 5895 5895 5896 5896 5896 5896 5896 5896 5896 5895 5896 5896 5895 5896 5896 5896 5895 5896 5896 5896 5896
5895 5895 5894 5894 5893 5893 5892 5892 5892 5891 5891 5891 5892 5892 5892 5893 5893 5893 5893 5894 5894 5894 5895 5895 5895 5896 5896 5895 5895 5895 5895 5895 5896 5896 5896 5896 5896 5896 5896 5896 5896 5896 5896
5896 5895 5895 5894 5894 5893 5892 5892 5892 5891 5891 5891 5891 5891 5892 5892 5892 5893 5893 5893 5893 5894 5894 5895 5895 5895 5895 5895 5895 5895 5895 5895 5896 5896 5896 5896 5896 5896 5896 5896 5896 5896 5896
5897 5896 5895 5895 5894 5893 5893 5892 5892 5891 5891 5891 5891 5891 5891 5892 5892 5892 5892 5893 5893 5893 5894 5894 5894 5895 5895 5895 5895 5895 5895 5895 5895 5895 5896 5896 5896 5896 5896 5896 5896 5896 5895
5897 5897 5895 5895 5894 5893 5893 5892 5892 5891 5891 5891 5891 5891 5891 5891 5891 5891 5892 5892 5892 5893 5893 5894 5894 5894 5894 5894 5895 5895 5895 5895 5895 5895 5896 5896 5896 5896 5896 5896 5896 5895 5895
5898 5897 5896 5895 5894 5893 5893 5892 5891 5891 5891 5890 5890 5890 5890 5890 5891 5890 5891 5891 5891 5892 5892 5892 5893 5893 5893 5894 5894 5894 5894 5895 5895 5895 5895 5895 5895 5896 5896 5896 5895 5895 5895
5898 5897 5896 5895 5894 5893 5893 5892 5891 5891 5890 5890 5890 5889 5889 5890 5890 5890 5890 5890 5890 5891 5891 5891 5891 5892 5892 5893 5893 5893 5894 5894 5894 5895 5895 5895 5895 5895 5895 5895 5895 5895 5894
5899 5898 5897 5896 5894 5893 5893 5892 5891 5890 5889 5889 5889 5888 5888 5888 5889 5889 5889 5889 5889 5889 5889 5890 5890 5890 5891 5891 5892 5892 5893 5893 5893 5894 5894 5894 5894 5894 5894 5894 5894 5894 5894
5899 5898 5897 5896 5895 5893 5892 5891 5891 5890 5889 5888 5888 5887 5887 5887 5887 5888 5888 5888 5888 5888 5888 5888 5888 5889 5890 5890 5891 5891 5891 5892 5893 5893 5893 5893 5893 5893 5893 5893 5893 5893 5892
5900 5899 5897 5896 5895 5894 5892 5891 5890 5889 5889 5888 5887 5887 5887 5887 5887 5887 5887 5887 5886 5886 5886 5886 5887 5887 5888 5889 5889 5890 5890 5891 5891 5892 5892 5892 5892 5892 5892 5892 5892 5891 5891
5900 5899 5898 5896 5895 5894 5893 5892 5890 5889 5888 5887 5887 5886 5886 5886 5886 5886 5885 5885 5885 5884 5884 5885 5885 5885 5886 5887 5888 5888 5889 5889 5890 5891 5891 5891 5891 5891 5891 5890 5890 5890 5890
5901 5900 5898 5897 5896 5894 5893 5891 5890 5889 5888 5887 5886 5886 5886 5886 5885 5885 5884 5884 5884 5883 5883 5883 5883 5884 5885 5885 5886 5887 5887 5888 5889 5889 5889 5889 5889 5889 5889 5889 5889 5889 5888
5901 5900 5898 5897 5896 5894 5893 5892 5890 5889 5888 5887 5886 5886 5886 5885 5885 5884 5883 5883 5882 5882 5881 5881 5882 5882 5883 5884 5885 5885 5886 5886 5887 5887 5887 5887 5887 5887 5887 5887 5887 5887 5886
5901 5899 5898 5897 5896 5894 5893 5892 5890 5889 5887 5886 5886 5885 5885 5884 5884 5883 5883 5882 5881 5880 5880 5880 5880 5881 5881 5882 5883 5884 5884 5884 5885 5885 5885 5885 5885 5885 5885 5885 5885 5885 5885
5901 5899 5898 5897 5895 5894 5893 5891 5890 5888 5887 5886 5886 5885 5884 5884 5883 5882 5882 5880 5880 5879 5879 5879 5879 5879 5880 5880 5881 5882 5882 5882 5883 5883 5883 5883 5883 5883 5883 5883 5883 5883 5883
5900 5899 5898 5897 5895 5894 5892 5891 5889 5888 5887 5886 5885 5884 5883 5883 5882 5881 5880 5879 5879 5878 5878 5878 5878 5878 5878 5879 5879 5880 5880 5880 5880 5880 5881 5881 5881 5881 5881 5881 5881 5881 5880
5900 5899 5898 5896 5895 5893 5892 5891 5889 5888 5887 5885 5885 5883 5882 5882 5881 5880 5879 5878 5877 5877 5877 5877 5877 5877 5877 5877 5878 5878 5878 5878 5878 5878 5878 5878 5878 5878 5879 5879 5879 5878 5878
5901 5900 5898 5896 5895 5893 5892 5891 5889 5888 5886 5885 5884 5882 5881 5881 5880 5879 5878 5877 5877 5876 5876 5876 5876 5876 5876 5875 5875 5875 5876 5876 5876 5875 5875 5876 5876 5876 5876 5876 5876 5876 5876
5901 5900 5898 5896 5894 5893 5891 5890 5888 5887 5886 5884 5883 5882 5881 5880 5879 5878 5878 5877 5876 5875 5875 5874 5874 5874 5874 5874 5873 5873 5873 5873 5873 5872 5872 5873 5873 5873 5873 5873 5873 5873 5873
5901 5899 5898 5895 5894 5892 5890 5889 5888 5886 5885 5883 5882 5881 5880 5879 5878 5877 5877 5876 5875 5874 5873 5873 5873 5872 5872 5872 5872 5871 5871 5871 5870 5870 5869 5869 5870 5870 5870 5870 5870 5870 5870
5901 5899 5897 5894 5892 5891 5889 5888 5886 5885 5884 5882 5881 5880 5879 5877 5877 5876 5875 5874 5873 5872 5872 5871 5871 5871 5870 5870 5869 5869 5868 5868 5867 5867 5867 5867 5867 5867 5867 5867 5867 5867 5867
5900 5898 5896 5894 5891 5889 5888 5886 5885 5884 5882 5881 5880 5878 5877 5876 5875 5874 5873 5872 5871 5871 5870 5869 5868 5868 5867 5867 5866 5866 5866 5865 5865 5864 5864 5863 5864 5864 5864 5864 5864 5863 5863
5898 5896 5894 5892 5890 5888 5886 5884 5883 5882 5880 5879 5878 5877 5875 5874 5873 5871 5871 5870 5869 5868 5867 5866 5866 5865 5865 5864 5863 5863 5862 5862 5861 5861 5860 5860 5860 5860 5860 5860 5860 5860 5860
5896 5894 5892 5890 5888 5886 5884 5882 5881 5879 5878 5877 5876 5875 5873 5872 5870 5869 5868 5867 5866 5865 5864 5863 5863 5862 5861 5861 5860 5859 5859 5858 5857 5857 5856 5856 5856 5856 5856 5856 5855 5855 5855